Location: La Pommeric
(45.6781°N, 2.1464°E)
Time: 10:43:53
(UTC+00:00)

Daily predictions for brighter satellites

Satellite Brightness Start Highest point End
(mag) Time Altitude Azimuth Time Altitude Azimuth Time Altitude Azimuth
Cosmos 1842 Rocket 3.6 16:34:06 10° S 16:38:30 65° E 16:42:57 10° NNE
Okean 3 Rocket 4.3 16:34:08 10° NNW 16:38:35 62° W 16:42:58 10° S
Cosmos 2221 2.5 16:34:21 10° S 16:38:35 75° E 16:42:54 10° NNE
SL-08 R/B 3.4 16:41:19 10° NNE 16:46:04 86° WNW 16:50:42 10° SSW
Cosmos 2084 3.5 16:46:26 10° NW 16:50:42 63° NE 16:55:08 10° SE
Cosmos 1656 3.7 16:45:55 10° NNW 16:51:29 88° WSW 16:57:06 10° SSE
AQUARIUS 4.5 16:48:07 10° SE 16:52:22 44° ENE 16:56:39 10° N
FengYun 1-2 T 4.2 16:48:14 10° SSE 16:53:46 71° ENE 16:59:19 10° N
H-2A R/B 2.7 16:50:20 10° SE 16:54:51 32° ENE 16:59:17 10° N
Cosmos 2034 Rocket 4.0 16:49:10 10° S 16:55:17 74° E 17:01:27 10° NNE
ERBS 4.1 16:54:21 10° WNW 16:56:51 21° NNW 16:59:23 10° NNE
Cosmos 2322 Rocket 4.1 16:57:16 10° NNE 16:58:26 11° NNE 16:59:37 10° NE
Cosmos 1666 4.3 16:56:43 10° NE 16:58:38 14° ENE 17:00:34 10° E
USA 306 4.2 16:56:39 10° WNW 17:00:20 28° N 17:03:44 11° NE
Cosmos 1697 Rocket 2.7 16:57:15 10° NNW 17:02:49 60° ENE 17:08:21 10° SE
USA 267 3.4 16:58:30 10° NE 17:05:03 78° NW 17:11:35 10° WSW
Cosmos 2369 4.0 17:00:37 10° NNW 17:06:06 44° ENE 17:11:33 10° SE
Cosmos 1980 Rocket 2.7 17:01:18 10° NNW 17:06:33 36° NE 17:11:42 10° ESE
Cosmos 1763 Rocket 3.4 17:02:00 10° SSW 17:07:03 76° ESE 17:12:10 10° NNE
Cosmos 1939 Rocket 2.9 17:04:20 10° SSE 17:08:27 83° ENE 17:12:33 10° N
COSMO-SKYMED 1 3.8 17:05:07 10° NE 17:08:27 21° E 17:11:47 10° SE
SL-24 R/B - RUBIN 2 4.2 17:07:02 10° NNW 17:11:16 35° NE 17:15:15 10° ESE
Meteor 1-25 Rocket 4.1 17:06:21 10° N 17:11:56 72° ENE 17:17:30 10° SSE
Cosmos 841 Rocket 4.0 17:07:53 10° S 17:12:36 38° ESE 17:17:16 10° NE
Cosmos 1812 3.9 17:11:39 10° SE 17:14:40 22° E 17:16:31 16° NE
Cosmos 1937 Rocket 3.5 17:10:39 10° NNW 17:15:56 60° ENE 17:21:11 10° SE
SL-16 R/B 3.7 17:12:35 10° N 17:16:02 16° NE 17:17:26 15° ENE
Cosmos 1634 Rocket 4.2 17:10:55 10° SSE 17:17:00 53° E 17:23:08 10° NNE
USA 307 4.2 17:15:04 10° WNW 17:18:45 27° N 17:21:20 16° NE
Cosmos 1633 Rocket 4.1 17:15:27 10° NNE 17:19:01 24° ENE 17:22:35 10° SE
Cosmos 2082 Rocket 2.7 17:14:53 10° S 17:20:05 38° ESE 17:24:27 14° NE
USA 229 DEB 4.0 17:13:08 10° NW 17:20:31 89° SW 17:28:22 10° SE
USA 229 4.0 17:13:14 10° NW 17:20:37 90° NE 17:28:27 10° SE
NOAA 6 4.1 17:16:37 10° SSE 17:21:46 84° WSW 17:26:56 10° NNW
Cosmos 990 Rocket 4.5 17:19:20 10° NNW 17:24:29 64° WSW 17:29:34 10° S
Cosmos 2026 Rocket 3.9 17:18:35 10° N 17:24:44 67° E 17:30:45 10° SSE
CZ-4B DEB 4.2 17:20:49 10° SSE 17:26:20 83° ENE 17:31:52 10° NNW
CORIOLIS 4.2 17:21:03 10° SSE 17:26:27 86° WSW 17:31:55 10° NNW
Cosmos 2195 Rocket 4.4 17:21:47 10° N 17:27:58 83° E 17:34:11 10° S
USA 276 3.4 17:26:19 10° WNW 17:29:17 39° SSW 17:32:13 10° SE
Okean O Rocket 2.2 17:25:39 10° SE 17:29:40 34° ENE 17:33:43 10° N
Cosmos 372 Rocket 4.1 17:25:07 10° NNW 17:30:14 51° ENE 17:35:20 10° SE
Cosmos 1602 3.6 17:26:38 10° N 17:30:30 87° E 17:34:21 10° S
Cosmos 2278 4.1 17:25:11 10° NNW 17:30:33 40° NE 17:35:52 10° SE
Cosmos 1743 Rocket 4.2 17:28:21 10° NNW 17:32:37 57° W 17:36:50 10° S
ATLAS CENTAUR R/B 4.0 17:31:13 10° NW 17:32:49 12° NNW 17:34:27 10° N
Cosmos 1782 2.7 17:31:30 10° S 17:35:28 68° E 17:39:26 10° NNE
Cosmos 1151 Rocket 3.5 17:31:31 10° SSE 17:35:29 37° E 17:38:08 18° NE
Meteor 2-14 Rocket 4.3 17:30:49 10° N 17:36:57 77° E 17:43:01 10° SSE
COSMOS 2406 3.2 17:31:53 10° SSW 17:37:39 85° ESE 17:43:05 12° NNE
USA 234 3.5 17:32:02 10° SE 17:38:34 73° SW 17:45:07 10° NW
COSMOS 2455 2.9 17:33:31 10° SSW 17:39:26 63° ESE 17:43:55 18° NE
USA 308 4.3 17:37:44 10° WNW 17:41:21 26° N 17:42:51 21° NNE
ARGOS 3.3 17:38:06 10° SE 17:43:20 51° ENE 17:48:33 10° N
Cosmos 1666 Rocket 3.7 17:39:44 10° N 17:44:06 51° ENE 17:48:23 10° SSE
Cosmos 1833 Rocket 3.0 17:38:38 10° SW 17:44:13 69° WNW 17:49:48 10° NNE
ISS -3.6 17:46:17 10° WNW 17:49:38 56° NNE 17:50:10 48° ENE
Cosmos 1328 Rocket 4.0 17:45:43 10° SSE 17:49:49 38° E 17:50:52 33° ENE
NOSS 2-2 (D) 4.3 17:45:18 10° NW 17:50:31 77° NE 17:57:52 10° SE
CZ-2D R/B 3.5 17:47:10 10° S 17:50:59 69° WSW 17:54:49 10° NNW
NOSS 2-2 (E) 4.4 17:45:42 10° NW 17:51:06 90° S 17:58:44 10° SE
PAYLOAD B 4.4 17:47:46 10° S 17:53:22 77° WSW 17:59:01 10° NNW
CZ-4 R/B 4.4 17:50:04 10° SSE 17:54:05 55° ENE 17:58:08 10° N
Lacrosse 5 rocket 2.4 17:53:14 10° NW 17:56:30 27° NNE 17:56:30 27° NNE
SKYMED 2 3.5 17:53:44 19° NNE 17:56:47 66° ESE 18:01:05 10° S
Meteor 2-21 Rocket 4.3 17:52:34 10° N 17:58:43 83° E 18:04:46 10° S
Cosmos 1570 Rocket 4.1 17:54:54 10° S 17:59:58 52° ESE 18:02:05 32° NE
CZ-4B R/B 3.1 17:54:50 10° SSE 18:00:17 87° ENE 18:05:40 10° NNW
Landsat 5 3.5 18:00:26 45° ENE 18:01:07 51° E 18:05:00 10° S
ATLAS CENTAUR R/B 3.1 17:51:57 10° WSW 18:01:13 62° NW 18:03:22 30° NNE
SL-08 RB Rocket 3.8 17:58:38 10° SSE 18:03:08 52° ENE 18:07:37 10° N
GEOS 3 Rocket 3.9 18:02:08 35° E 18:03:51 47° NE 18:08:50 10° NNW
Cosmos 540 Rocket 3.9 17:58:54 10° SSW 18:03:56 61° WNW 18:08:24 13° NNE
CZ-2C R/B 2.4 17:59:33 10° NNE 18:04:47 78° ESE 18:09:57 10° S
Cosmos 1500 3.8 18:01:07 10° NNW 18:04:47 55° W 18:08:26 10° S
Cosmos 1814 Rocket 3.9 18:02:28 10° S 18:07:40 71° ESE 18:10:08 31° NNE
Cosmos 1818 3.9 18:02:55 10° NNW 18:08:12 44° NE 18:09:03 41° ENE
Meteor 1-11 Rocket 4.2 18:03:16 10° N 18:07:51 36° ENE 18:07:51 36° ENE
USA 305 4.1 18:05:08 10° NW 18:08:48 27° N 18:08:56 27° N
Cosmos 44 Rocket 3.7 18:07:16 10° NNW 18:11:47 42° NE 18:11:47 42° NE
CZ-4C R/B 2.9 18:05:12 10° NW 18:12:25 74° NE 18:20:10 13° SE
Sich 1 4.3 18:09:27 10° NNW 18:13:31 42° W 18:17:35 10° SSW
Cosmos 1900 4.5 18:13:41 10° SSW 18:18:19 50° ESE 18:18:19 50° ESE
Feng Yun 1-1 Rocket 4.3 18:13:14 10° SSE 18:19:06 69° ENE 18:24:57 10° N
Cosmos 2360 Rocket 3.9 18:20:08 10° N 18:22:13 18° NNE 18:22:13 18° NNE
deb Chang Zheng 4 4.4 18:23:16 10° S 18:27:28 51° W 18:31:42 10° NNW
Cosmos 2208 Rocket 3.9 18:27:17 10° SSW 18:32:40 81° ESE 18:33:46 58° NE
H-2A R/B 3.6 18:29:26 10° SSW 18:34:12 36° W 18:38:53 10° NNW
Cosmos 1666 3.7 18:30:52 10° NNW 18:34:25 45° W 18:37:58 10° SSW
Cosmos 2322 Rocket 3.3 18:38:39 10° NNW 18:41:55 31° N 18:41:55 31° N
COSMO-SKYMED 1 3.8 18:42:21 21° NNW 18:44:45 39° WNW 18:48:48 10° SW
USA 267 4.1 18:45:34 31° NNE 18:47:34 39° NNW 18:53:30 10° W
Cosmos 1980 Rocket 3.5 18:45:20 10° NW 18:50:34 39° WSW 18:55:45 10° S
Cosmos 2266 Rocket 4.0 18:45:08 10° N 18:51:33 87° W 18:57:58 10° S
Cosmos 1125 Rocket 4.5 18:54:19 10° NNW 18:57:27 37° NNW 18:57:27 37° NNW
SL-16 R/B 2.9 18:55:28 10° NNW 18:59:21 44° NNW 18:59:21 44° NNW
Meteor 2-15 Rocket 4.4 18:56:09 10° S 19:02:17 82° W 19:03:21 63° N
Cosmos 2082 Rocket 3.4 18:58:55 10° WSW 19:04:10 37° NW 19:06:20 27° N
Okean O Rocket 3.7 19:02:20 10° SSW 19:06:03 26° W 19:09:48 10° NW
Cosmos 2333 Rocket 4.5 19:05:28 10° N 19:06:11 13° N 19:06:11 13° N
ATLAS 2AS CENTAUR R/B 4.4 19:16:24 10° NNW 19:20:53 21° N 19:20:53 21° N
COSMOS 2455 4.3 19:20:34 10° WSW 19:25:48 30° NW 19:27:05 27° NNW
Lacrosse 5 rocket 4.4 19:32:01 10° NW 19:32:06 11° NW 19:32:06 11° NW
CZ-4C R/B 4.4 19:54:16 10° NW 20:00:47 32° WSW 20:05:34 19° SSW
